Location: Brantley
(31.5822°N, 86.2569°W)
Time: 00:14:05
(UTC+00:00)

Courier 1B Rocket - Pass Details

Date: 21 February 2026
Orbit: 920 x 1201 km, 28.2° (Epoch: 9 March)

Event Time Altitude Azimuth Distance (km) Brightness Sun altitude
Rises 00:47:37 0° 257° (WSW) 3,549 9.6 -15.9°
Reaches altitude 10° 00:50:14 10° 254° (WSW) 2,602 8.5 -16.5°
Maximum altitude 00:56:22 63° 174° (S) 1,024 5.1 -17.8°
Enters shadow 00:59:35 29° 103° (ESE) 1,632 5.6 -18.4°
Drops below altitude 10° 01:02:40 10° 95° (E) 2,670 - -19.1°
Sets 01:05:22 0° 92° (E) 3,648 - -19.7°
